Powrót do katalogu

MUOS 3

AktywnyMilitariaGEO
NORAD 40374·PAYLOAD·🇺🇸 United States

Wystrzelony Jan 21, 2015 z Cape Canaveral Space Force Station

Loading…

TLE

ŚwieżeSource: Space-Track

Epoka: Sep 14, 2026, 06:53 UTC

1 40374U 15002A   26257.28686436 -.00000135  00000-0  00000-0 0  9991
2 40374   4.6912  43.7843 0057874 178.4783 218.7851  1.00273608 42487

Śledź MUOS 3 w czasie rzeczywistym z AllMySat

Download on the App Store